Location: Unspecified
(57.6483°N, 3.3184°W)
Time: 10:48:35
(UTC+00:00)

BlueWalker 3 - Pass Details

Date: 30 January 2026
Orbit: 450 x 461 km, 53.2° (Epoch: 11 February)

Event Time Altitude Azimuth Distance (km) Brightness Sun altitude
Rises 20:05:16 0° 271° (W) 2,460 6.7 -27.8°
Reaches altitude 10° 20:07:33 10° 261° (W) 1,586 5.3 -28.1°
Enters shadow 20:08:52 19° 247° (WSW) 1,145 4.3 -28.3°
